Location: Bocchere
(45.2667°N, 10.5333°E)
Time: 16:09:42
(UTC+00:00)

Daily predictions for brighter satellites

Satellite Brightness Start Highest point End
(mag) Time Altitude Azimuth Time Altitude Azimuth Time Altitude Azimuth
Spot 2 4.4 17:49:37 10° S 17:54:05 72° WSW 17:58:20 10° NNW
Cosmos 2082 Rocket 3.0 17:49:21 10° NNW 17:54:34 34° NE 17:59:44 10° ESE
Lacrosse 4 Rocket 1.7 17:52:32 10° S 17:56:20 42° ESE 18:00:10 10° NE
Cosmos 1570 Rocket 4.1 17:51:27 10° NNW 17:56:46 61° ENE 18:02:00 10° SSE
Cosmos 1869 Rocket 3.5 17:52:53 10° S 17:57:12 89° E 18:01:33 10° N
SL-08 RB Rocket 3.6 17:53:05 10° SSE 17:57:32 74° ENE 18:02:01 10° N
CZ-4B R/B 2.2 17:55:00 10° NE 17:57:34 25° E 18:00:08 10° SSE
CSL-04 Rocket 4.2 17:54:23 10° SE 17:59:17 39° ENE 18:04:15 10° N
Cosmos 2181 Rocket 4.3 17:53:47 10° N 17:59:41 46° ENE 18:05:37 10° SSE
USA 186 3.4 17:59:00 10° E 18:00:25 13° ENE 18:01:54 10° NE
BREEZE-M DEB (TANK) 3.9 17:59:14 10° WNW 18:03:10 69° NNE 18:18:03 11° ESE
H-2A R/B 3.6 18:07:34 10° S 18:11:48 51° W 18:16:10 10° NNW
CZ-4 R/B 1.6 18:10:16 10° S 18:14:06 70° WSW 18:17:57 10° NNW
Cosmos 1340 3.8 18:11:29 10° NNE 18:14:37 24° ENE 18:17:23 12° ESE
Cosmos 1733 Rocket 3.3 18:10:47 10° SSE 18:14:53 44° E 18:19:01 10° NNE
MetOp-A 4.3 18:09:57 10° SSE 18:15:10 55° ENE 18:20:24 10° N
Cosmos 2278 Rocket 2.2 18:10:20 10° SSW 18:15:59 74° ESE 18:21:40 10° NNE
Cosmos 1709 Rocket 4.0 18:10:38 10° S 18:16:55 90° NE 18:23:09 10° N
Genesis I 3.7 18:14:26 10° SW 18:18:18 63° NW 18:22:17 10° NNE
H-2A R/B 2.2 18:17:16 10° N 18:21:35 77° WNW 18:25:45 10° SSW
Cosmos 2184 Rocket 4.5 18:18:18 10° SSE 18:24:07 39° E 18:29:55 10° NNE
Cosmos 1356 Rocket 3.4 18:22:54 10° S 18:27:05 71° E 18:31:22 10° NNE
Cosmos 2208 Rocket 4.0 18:22:43 10° NNW 18:27:58 88° ENE 18:33:15 10° SSE
IRS-1C Rocket 4.3 18:24:33 10° S 18:29:48 75° WSW 18:35:05 10° NNW
DMSP B5D2-2 4.1 18:24:43 10° NNE 18:30:03 85° ESE 18:35:21 10° SSW
Cosmos 1814 Rocket 4.5 18:25:16 10° NNW 18:30:36 67° WSW 18:35:52 10° S
SeaSat 1 2.4 18:26:38 10° SSE 18:31:34 84° ENE 18:36:31 10° NNW
COSMOS 2455 3.9 18:27:25 10° NNW 18:32:42 30° NE 18:36:25 17° E
Cosmos 1626 4.4 18:32:50 10° ENE 18:32:54 10° ENE 18:32:54 10° ENE
ERBS 2.1 18:37:34 10° SW 18:40:51 78° SE 18:43:37 14° NE
Cosmos 1707 3.1 18:38:05 10° N 18:41:49 42° ENE 18:44:05 21° SE
Cosmos 1975 2.7 18:38:36 10° S 18:42:33 69° E 18:46:31 10° NNE
CSL-04 Debris 4.2 18:37:07 10° SSE 18:42:33 84° WSW 18:48:00 10° NNW
Cosmos 1238 Rocket 4.3 18:36:26 10° SSE 18:42:34 44° E 18:48:24 10° NNE
OBJECT-B 0.7 18:41:39 18° SSE 18:43:52 60° ENE 18:47:02 10° N
Cosmos 1943 Rocket 3.0 18:39:56 10° SSE 18:44:30 27° ESE 18:49:06 10° NE
USA 215 4.0 18:38:18 10° SSE 18:44:35 48° SW 18:50:54 10° WNW
Cosmos 968 Rocket 3.4 18:39:42 10° SSW 18:44:55 77° ESE 18:50:12 10° NNE
USA 305 3.9 18:44:28 10° W 18:48:31 44° NNW 18:52:35 10° NE
Lacrosse 5 rocket 3.4 18:46:13 10° NW 18:49:43 21° NNE 18:52:32 13° ENE
ISS -3.1 18:49:09 10° SSW 18:52:14 34° SE 18:52:24 34° SE
Cosmos 921 Rocket 3.3 18:49:48 10° NNW 18:54:08 66° WSW 18:58:21 10° S
Cosmos 1486 Rocket 4.0 18:49:35 10° S 18:54:45 63° ESE 18:59:58 10° NNE
Cosmos 1461 4.1 18:53:35 10° NNW 18:57:00 25° NE 18:57:53 23° ENE
SL-4 R/B 3.1 18:55:34 10° WNW 18:58:40 31° SW 19:00:23 20° S
USA 307 4.0 18:55:13 10° W 18:59:14 42° NNW 19:03:04 11° NE
Cosmos 1908 Rocket 3.7 18:57:54 10° S 19:02:14 53° E 19:06:37 10° NNE
Nadezhda 3 Rocket 4.1 18:57:36 10° N 19:03:38 53° ENE 19:07:20 23° SE
KORONAS-FOTON 4.5 19:00:15 10° N 19:03:40 34° ENE 19:03:40 34° ENE
Cosmos 1842 4.5 19:01:06 10° NNW 19:04:51 43° W 19:08:35 10° SSW
USA 281 3.5 18:59:22 10° NE 19:05:31 41° ESE 19:11:37 10° S
SJ-6B 2.9 19:04:20 20° SSE 19:07:10 89° W 19:11:19 10° NNW
Cosmos 1689 Rocket 4.4 19:06:08 10° NNE 19:06:35 14° NNE 19:06:35 14° NNE
Cosmos 1400 Rocket 2.9 19:07:17 29° SSE 19:09:08 53° E 19:13:08 10° NNE
Cosmos 1378 Rocket 3.7 19:09:14 10° NNW 19:13:37 72° W 19:17:05 16° S
USA 306 4.3 19:12:14 10° W 19:16:06 34° NNW 19:19:11 15° NE
ATLAS CENTAUR R/B 2.8 19:12:18 10° NNW 19:16:20 29° NE 19:17:09 27° ENE
USA 308 4.3 19:14:23 10° W 19:18:18 35° NNW 19:21:18 15° NE
Cosmos 1674 3.0 19:14:46 10° N 19:18:00 47° NE 19:18:00 47° NE
Inspiration4 2.5 19:20:12 10° SW 19:24:30 81° SSE 19:25:24 54° ENE
CZ-3 Stage 3 4.3 19:05:34 10° SW 19:24:35 27° S 19:27:42 23° SSE
TRAILBLAZER 4.5 19:23:33 10° SSW 19:28:03 66° ESE 19:30:31 27° NE
CZ-4B R/B 4.4 19:27:34 10° NNW 19:29:28 16° WNW 19:31:22 10° WSW
In-Cosmos 22 4.3 19:25:38 10° NNW 19:30:55 69° W 19:34:23 22° S
USA 186 3.7 19:30:09 19° WSW 19:30:55 22° W 19:33:10 10° NW
Cosmos 2074 Rocket 4.4 19:25:11 10° SSW 19:31:21 66° W 19:37:37 10° N
Lacrosse 4 Rocket 3.9 19:31:58 10° W 19:35:10 22° NW 19:38:23 10° N
SPOT 3 Rocket 3.8 19:36:01 47° ENE 19:36:17 47° ENE 19:41:13 10° N
Cosmos 773 Rocket 4.1 19:31:56 10° NNW 19:37:05 54° ENE 19:37:33 52° E
Cosmos 2082 Rocket 3.3 19:33:23 10° NW 19:38:44 42° WSW 19:42:45 17° S
Resurs 01 Rocket 1.6 19:40:22 65° ENE 19:40:22 65° ENE 19:44:37 10° N
Helios 1A Rocket 3.8 19:49:39 37° SW 19:50:38 45° W 19:54:36 10° NNW
Cosmos 1782 Rocket 3.6 19:52:42 81° NW 19:52:42 81° NW 19:57:02 10° N
Ariane Rocket 3.2 19:53:08 49° SSW 19:54:23 69° WSW 19:59:28 10° NNW
Terra 3.9 19:56:16 16° NE 19:56:16 16° NE 19:57:55 10° NNE
ERS-1 Rocket 4.4 19:59:20 25° NE 19:59:20 25° NE 20:02:16 10° N
Cosmos 2297 4.0 19:57:17 10° SW 20:02:56 68° WNW 20:08:40 10° NNE
Cosmos 1626 3.8 20:05:17 10° NNW 20:07:24 31° NNW 20:07:24 31° NNW
Cosmos 2369 Rocket 3.6 20:12:18 26° NE 20:12:18 26° NE 20:14:42 10° NNE
Cosmos 1346 Rocket 3.9 20:05:38 10° NNW 20:08:28 42° NW 20:08:28 42° NW
SPOT 1/Viking Rocket 3.6 20:15:41 72° N 20:15:41 72° N 20:20:20 10° NNW
Landsat 7 4.3 20:16:04 57° W 20:16:04 57° W 20:20:38 10° NNW
COSMOS 2455 3.1 20:13:05 10° NW 20:19:01 61° WSW 20:19:34 58° SW
Cosmos 1975 Rocket 4.1 20:18:35 10° NNW 20:22:05 43° WNW 20:22:05 43° WNW
Cosmos 1943 Rocket 3.0 20:22:34 10° SW 20:27:55 49° WNW 20:33:23 10° NNE
Lacrosse 5 rocket 3.0 20:25:20 10° NW 20:28:07 33° NNW 20:28:07 33° NNW
SPOT 5 4.1 20:43:03 41° N 20:43:03 41° N 20:46:34 10° N
USA 281 4.2 20:43:52 10° NNE 20:50:01 45° NW 20:56:10 10° SW
SL-8 Rocket 4.4 20:52:19 58° W 20:52:32 59° WNW 20:58:45 10° N
ATLAS CENTAUR R/B 3.5 20:50:54 10° NW 20:53:17 28° WNW 20:53:17 28° WNW
Cosmos 1727 Rocket 4.4 20:52:07 10° N 20:57:07 58° N 20:57:07 58° N
Resurs 01 Rocket 4.4 21:17:56 13° WNW 21:17:56 13° WNW 21:19:17 10° WNW
SJ 16-02 4.3 21:27:03 13° N 21:27:03 13° N 21:27:33 10° N
Cosmos 2297 Rocket 4.3 21:25:43 10° N 21:28:14 20° NNE 21:28:14 20° NNE
Terra 4.2 21:35:09 20° NNW 21:35:09 20° NNW 21:36:40 10° NNW
Cosmos 2227 Rocket 4.3 21:46:29 10° N 21:48:49 20° NNE 21:48:49 20° NNE
Cosmos 2369 Rocket 4.1 21:54:02 25° NW 21:54:02 25° NW 21:58:12 10° N
CENTAUR R/B 4.2 22:53:55 30° NNE 22:53:55 30° NNE 22:57:43 10° NNE
ATLAS 3B R/B 4.3 23:50:47 25° NE 23:50:47 25° NE 23:53:32 10° NE
